Погода в Боброве

Россия / Воронежская область     51°05′51″N   40°02′08″E
темп.,
°C
ветер,
м/с
пор.,
м/с
влажн.,
%
обл.,
%
осадки,
мм/ч
давл.,
гПа
погр.,
м
16 мая, вс
вс1600:00+16ссв118357 0.0 101311
03:00+15всв11873 0.0 101411
06:00+16всв128110 0.0 101445
09:00+22в236353 0.1 1014446
12:00+25всв3352100 0.0 10131018
15:00+27всв355488 0.0 10121769
18:00+24юв486081 1.4 1012265
21:00+18в3367100 1.4 101227
17 мая, пн
пн1700:00+16в356868 0.0 101163
03:00+16вюв4965100 0.0 1011133
06:00+16вюв31068100 0.0 1011179
09:00+23вюв6145596 0.0 1011526
12:00+26вюв8144522 0.0 10101505
15:00+27вюв81446100 0.0 10091925
18:00+24вюв51257100 0.0 1009347
21:00+20вюв5165544 0.0 1009330
18 мая, вт
вт1800:00+18юв5145298 0.0 1009276
03:00+15вюв4106011 0.0 1009166
06:00+15юв3106681 0.0 1009195
09:00+22юв474977 0.0 1009439
12:00+25вюв6842100 0.0 1008928
15:00+26юв61148100 0.0 10071591
18:00+24ююв3661100 0.0 1006205
21:00+19ююв226392 0.0 100612
19 мая, ср
ср1900:00+16ююз399160 0.0 1006196
03:00+15ю3791100 0.0 1007220
06:00+15ююв2588100 0.1 1007268
09:00+17ю567886 0.1 1007915
12:00+18ю6873100 0.3 10081097
15:00+19ю6863100 1.3 10081371
18:00+17ю597214 0.3 1007691
21:00+14ю5118115 0.3 1008435
20 мая, чт
чт2000:00+11ю5119330 0.0 1009417
03:00+12ююз61088100 0.1 1009722
06:00+12ююз61088100 0.1 1009760
09:00+12юз71186100 0.4 1011816
12:00+15юз71171100 0.4 10121406
15:00+18зюз8115679 0.6 10131860
18:00+18з4766100 0.0 1014864
21:00+13всв117920 0.0 101410